Flag for U.S.A. Weather past 2 weeks in Spokane, Washington, U.S.A.

Now
47 °F

Sunny.


Feels Like: 46 °F
Forecast: 41 / 67 °F
Wind: 3 mph from North

Location: Felts Field

Current Time: Mar 30, 2015 at 9:35:24 AM

Latest Report: Mar 30, 2015 at 8:53 AM


Visibility: 10 mi

Pressure: 30.12 "Hg

Humidity: 74%

Dew point: 39 °F

Location of SpokaneLocation

Historic Weather in Spokane — Graph

°F

Spokane temperature yesterday

Maximum temperature yesterday: 61 °F (at 2:53 PM)
Minimum temperature yesterday: 39 °F (at 6:53 AM)
Average temperature yesterday: 50 °F

Past Weeks' High & Low Weather Summary

 TemperatureHumidityPressure
High73 °F (Mar 27, 3:53 PM)97% (Mar 27, 7:53 AM)30.36 "Hg (Mar 27, 7:53 AM)
Low34 °F (Mar 22, 6:53 AM)32% (Mar 21, 1:53 PM)29.75 "Hg (Mar 15, 5:53 PM)
Average48 °F73%30.09 "Hg
* Reported Mar 15 7:53 AM — Mar 30 7:53 AM, Spokane, Weather by CustomWeather, © 2015

Note: Actual official high and low records may vary slightly from our data, if they occured in-between our weather recording intervals... More about our weather records

Advertising

Spokane weather history for previous 24 hours

 ConditionsComfort  
Time TempWeatherWind HumidityBarometerVisibility
7:53 AM
Mon, Mar 30
43 °FSunny.3 mph86%30.13 "Hg10 mi
6:53 AM38 °FClear.No wind93%30.12 "Hg10 mi
5:53 AM41 °FClear.3 mph86%30.12 "Hg10 mi
4:53 AM40 °FClear.5 mph89%30.13 "Hg10 mi
3:53 AM41 °FClear.5 mph86%30.14 "Hg10 mi
2:53 AM44 °FClear.6 mph79%30.13 "Hg10 mi
1:53 AM42 °FClear.5 mph82%30.14 "Hg10 mi
12:53 AM43 °FClear.5 mph82%30.14 "Hg10 mi
11:53 PM
Sun, Mar 29
43 °FClear.3 mph82%30.14 "Hg10 mi
10:53 PM47 °FClear.3 mph74%30.14 "Hg10 mi
9:53 PM49 °FClear.No wind69%30.14 "Hg10 mi
8:53 PM50 °FClear.No wind68%30.14 "Hg10 mi
7:53 PM53 °FSunny.3 mph61%30.14 "Hg10 mi
6:53 PM59 °FSunny.3 mph46%30.14 "Hg10 mi
5:53 PM60 °FPassing clouds.9 mph42%30.14 "Hg10 mi
4:53 PM60 °FSunny.10 mph44%30.15 "Hg10 mi
3:53 PM61 °FBroken clouds.12 mph41%30.16 "Hg10 mi
2:53 PM61 °FBroken clouds.12 mph44%30.17 "Hg10 mi
1:53 PM60 °FBroken clouds.15 mph42%30.20 "Hg10 mi
12:53 PM59 °FScattered clouds.12 mph48%30.22 "Hg10 mi
11:53 AM57 °FScattered clouds.13 mph49%30.24 "Hg10 mi
10:53 AM55 °FOvercast.10 mph51%30.26 "Hg10 mi
9:53 AM51 °FScattered clouds.3 mph63%30.27 "Hg10 mi
Weather by CustomWeather, © 2015

See weather overviewHow to use our weather pages